Regional Weather Roundup
Issued by NWS

Home | Current Version | Previous Version | Text Only | Print | Product List | Glossary On
Versions: 1 2 3 4 5 6 7 8 9 10 11 12 13 14 15 16 17 18 19 20 21 22 23 24 25 26 27
000
ASUS46 KPQR 231610
RWROR

OREGON REGIONAL WEATHER ROUNDUP
NATIONAL WEATHER SERVICE PORTLAND OR
900 AM PDT WED APR 23 2014

NOTE: "FAIR" INDICATES FEW OR NO CLOUDS BELOW 12,000 FEET WITH
NO SIGNIFICANT WEATHER AND/OR OBSTRUCTIONS TO VISIBILITY.

ORZ001>013-231700-
NORTHWEST OREGON


CITY           SKY/WX    TMP DP  RH WIND       PRES   REMARKS
ASTORIA        LGT RAIN  48  46  93 E3        29.88F
NEWPORT        CLOUDY    48  46  93 S21G28    29.98F FOG
PORTLAND       LGT RAIN  47  44  90 S8        29.96S
VANCOUVER WA   LGT RAIN  47  43  86 VRB5      29.95S
SCAPPOOSE      LGT RAIN  47  45  93 S7        29.93F
HILLSBORO      LGT RAIN  46  43  89 S9        29.93F
AURORA         CLOUDY    48  46  93 S18G24    29.96S
MCMINNVILLE    CLOUDY    49  47  93 S14       29.95S
SALEM          CLOUDY    49  43  80 S21G29    29.96F
CORVALLIS      PTSUNNY   48  45  87 S16       29.99F
EUGENE         PTSUNNY   48  42  80 S13       30.01F
$$

ORZ021-028-231700-
SOUTHWEST OREGON


CITY           SKY/WX    TMP DP  RH WIND       PRES   REMARKS
NORTH BEND     CLOUDY    48  46  93 SE8       30.03S
BROOKINGS      CLOUDY    46  46 100 SE10      30.11S FOG
ROSEBURG       PTSUNNY   50  41  71 VRB3      30.04F
SEXTON SUMMIT  FOG       34  34 100 S14G29    30.00S VSB<1/4 WCI  25
MEDFORD        PTSUNNY   48  39  71 CALM      30.07F
$$

ORZ009-041-231700-
COLUMBIA GORGE


CITY           SKY/WX    TMP DP  RH WIND       PRES   REMARKS
TROUTDALE      LGT RAIN  47  44  90 CALM      29.95F
THE DALLES     CLOUDY    47  42  83 CALM      29.96S
$$

ORZ029>031-042>050-061>064-231700-
EASTERN OREGON


CITY           SKY/WX    TMP DP  RH WIND       PRES   REMARKS
REDMOND        MOSUNNY   46  29  51 SW15      29.94F
BEND           SUNNY     43  28  56 SW16G28   29.95F
KLAMATH FALLS  CLOUDY    41  28  60 S10       30.05R
LAKEVIEW       PTSUNNY   37  25  60 S10       30.07R WCI  30
HERMISTON      CLOUDY    49  37  63 W7        29.94F
PENDLETON      MOSUNNY   48  32  53 W7        29.92F
MEACHAM        FLURRIES  35  33  92 CALM      29.91F
LA GRANDE      CLOUDY    41  28  60 NW6       29.94S
BAKER CITY     PTSUNNY   39  28  64 SW3       29.94S
BURNS          CLOUDY    40  26  57 MISG      30.01S
ROME             N/A     45  21  38 SW17G24   30.01R
ONTARIO        CLOUDY    43  29  57 SW3       30.04R
$$



USA.gov is the U.S. government's official web portal to all federal, state and local government web resources and services.